Content
SEND FEEDBACK

Daily
Averages
Monthly
Summary
United States of America

PLACERVILLE, CALIFORNIA


Home > North America > United States > California
Elevation: 2590 feet     Latitude: 38 43N     Longitude: 120 45W

WEATHER
 
SELECT A DAY
Number of Records: 93,424;   Date Range: 7/10/09 - 7/19/14
 
SHARE

PRINT THIS DATA

[ ← Previous Day ]
WEATHER ALMANAC - JULY 13, 2013
[ Next Day → ]
[ °C ]   °F
Weather ElementAverageHighLow
Temperature78.3 °F89.6 °F (2:35 pm)66.2 °F (2:55 am)
Dewpoint35 °F39.2 °F (12:35 am)30.2 °F (7:55 pm)
Humidity22 %37 % (2:55 am)14 % (5:55 pm)
Barometer30.02 in30.05 in (10:35 am)29.98 in (12:35 am)
Wind Speed5.7 mph13.8 mph (1:35 pm)
Wind Gust19.6 mph (1:35 pm)
Weather ElementAverage
Visibility10 mi
Wind DirectionSSE (160.7 °)

Weather ElementTotal
Precipitation---
Cooling Degree Days12.9 (Base 65)
Growing Degree Days27.9 (Base 50)
Averaged from 71 records on July 13, 2013
WEATHER CONDITIONS BREAKOUT
WIND DIRECTION BREAKOUT
WEATHER BY HOUR - JULY 13, 2013
[ °C ]   °F
Local TimeTemperatureDewpointHumidityBarometerVisibilityWind DirectionWind SpeedGust SpeedPrecipitationEventsConditions
12:35 AM68.0 °F39.2 °F35 %29.98 in10.0 miESE (120°)6.9 mphClear
12:55 AM68.0 °F39.2 °F35 %29.98 in10.0 miESE (120°)8.1 mphClear
1:15 AM68.0 °F39.2 °F35 %29.98 in10.0 miESE (110°)9.2 mphClear
1:35 AM68.0 °F39.2 °F35 %29.98 in10.0 miESE (110°)9.2 mphClear
1:55 AM68.0 °F39.2 °F35 %29.98 in10.0 miEast (100°)8.1 mphClear
2:15 AM68.0 °F39.2 °F35 %29.98 in10.0 miESE (110°)3.5 mphClear
2:35 AM68.0 °F39.2 °F35 %29.98 in10.0 miEast (100°)5.8 mphClear
2:55 AM66.2 °F39.2 °F37 %29.98 in10.0 miEast (90°)4.6 mphClear
3:15 AM66.2 °F37.4 °F35 %29.98 in10.0 miEast (100°)5.8 mphClear
3:35 AM66.2 °F37.4 °F35 %29.98 in10.0 miESE (110°)4.6 mphClear
3:55 AM66.2 °F35.6 °F32 %29.98 in10.0 miESE (110°)4.6 mphClear
4:15 AM68.0 °F35.6 °F30 %29.98 in10.0 miESE (110°)6.9 mphClear
4:35 AM66.2 °F35.6 °F32 %29.98 in10.0 miEast (100°)5.8 mphClear
4:55 AM69.8 °F33.8 °F27 %29.98 in10.0 miESE (120°)5.8 mphClear
5:15 AM68.0 °F33.8 °F28 %29.99 in10.0 miESE (120°)5.8 mphClear
5:35 AM69.8 °F32.0 °F25 %29.99 in10.0 miESE (110°)4.6 mphClear
5:55 AM68.0 °F33.8 °F28 %30.00 in10.0 miESE (110°)6.9 mphClear
6:15 AM69.8 °F32.0 °F25 %30.00 in10.0 miESE (110°)5.8 mphClear
6:35 AM71.6 °F32.0 °F23 %30.00 in10.0 miESE (110°)4.6 mphClear
6:55 AM71.6 °F33.8 °F25 %30.01 in10.0 miESE (120°)5.8 mphClear
7:15 AM69.8 °F33.8 °F27 %30.01 in10.0 miESE (120°)5.8 mphClear
7:35 AM73.4 °F33.8 °F23 %30.02 in10.0 miESE (120°)4.6 mphClear
7:55 AM75.2 °F35.6 °F24 %30.03 in10.0 miCalmClear
8:15 AM75.2 °F37.4 °F25 %30.03 in10.0 miSE (130°)3.5 mphClear
8:35 AM77.0 °F35.6 °F22 %30.03 in10.0 miSE (140°)3.5 mphClear
8:55 AM77.0 °F35.6 °F22 %30.04 in10.0 miSSE (160°)3.5 mphClear
9:15 AM78.8 °F37.4 °F23 %30.04 in10.0 miSW (220°)3.5 mphClear
9:35 AM78.8 °F37.4 °F23 %30.04 in10.0 miSSW (200°)4.6 mphClear
9:55 AM80.6 °F39.2 °F23 %30.04 in10.0 miSW (220°)4.6 mphClear
10:15 AM80.6 °F37.4 °F21 %30.04 in10.0 miCalmClear
10:35 AM82.4 °F37.4 °F20 %30.05 in10.0 miSSW (210°)5.8 mphClear
10:55 AM84.2 °F37.4 °F19 %30.05 in10.0 miSW (220°)4.6 mphClear
11:15 AM84.2 °F37.4 °F19 %30.05 in10.0 miWest (260°)5.8 mphClear
11:35 AM84.2 °F35.6 °F18 %30.05 in10.0 miWest (260°)5.8 mphClear
11:55 AM86.0 °F35.6 °F17 %30.05 in10.0 miSSW (210°)9.2 mphClear
12:15 PM86.0 °F35.6 °F17 %30.05 in10.0 miSSW (210°)11.5 mphClear
12:35 PM87.8 °F35.6 °F16 %30.05 in10.0 miSW (220°)10.4 mphClear
12:55 PM86.0 °F35.6 °F17 %30.04 in10.0 miSW (220°)9.2 mphClear
1:15 PM86.0 °F35.6 °F17 %30.05 in10.0 miSSW (210°)9.2 mph16.1 mphClear
1:35 PM86.0 °F35.6 °F17 %30.04 in10.0 miSSW (210°)13.8 mph19.6 mphClear
1:55 PM87.8 °F35.6 °F16 %30.04 in10.0 miSSW (200°)6.9 mphClear
2:15 PM87.8 °F35.6 °F16 %30.04 in10.0 miSW (230°)5.8 mphClear
2:35 PM89.6 °F35.6 °F15 %30.04 in10.0 miWSW (240°)9.2 mphClear
2:55 PM87.8 °F35.6 °F16 %30.04 in10.0 miWSW (240°)9.2 mphClear
3:15 PM89.6 °F35.6 °F15 %30.03 in10.0 miWSW (250°)10.4 mphClear
3:35 PM87.8 °F35.6 °F16 %30.03 in10.0 miWSW (250°)6.9 mphClear
3:55 PM89.6 °F35.6 °F15 %30.03 in10.0 miWSW (240°)6.9 mphClear
4:15 PM87.8 °F35.6 °F16 %30.02 in10.0 miWest (260°)8.1 mphClear
4:35 PM87.8 °F35.6 °F16 %30.02 in10.0 miSW (230°)10.4 mphClear
4:55 PM87.8 °F35.6 °F16 %30.02 in10.0 miSW (220°)8.1 mphClear
5:15 PM86.0 °F35.6 °F17 %30.02 in10.0 miSW (230°)8.1 mphClear
5:35 PM86.0 °F33.8 °F15 %30.02 in10.0 miSW (220°)8.1 mphClear
5:55 PM86.0 °F32.0 °F14 %30.02 in10.0 miWest (260°)9.2 mphClear
6:15 PM86.0 °F32.0 °F14 %30.02 in10.0 miSW (230°)4.6 mphClear
6:35 PM86.0 °F32.0 °F14 %30.02 in10.0 miWSW (250°)4.6 mphClear
6:55 PM84.2 °F32.0 °F15 %30.02 in10.0 miSSW (210°)3.5 mphClear
7:15 PM82.4 °F32.0 °F16 %30.02 in10.0 miSW (230°)5.8 mphClear
7:35 PM82.4 °F32.0 °F16 %30.02 in10.0 miWSW (250°)5.8 mphClear
7:55 PM82.4 °F30.2 °F15 %30.02 in10.0 miWest (280°)4.6 mphClear
8:15 PM82.4 °F30.2 °F15 %30.02 in10.0 miWest (270°)4.6 mphClear
8:35 PM80.6 °F32.0 °F17 %30.02 in10.0 miWNW (290°)4.6 mphClear
8:55 PM80.6 °F30.2 °F16 %30.02 in10.0 miWNW (300°)3.5 mphClear
9:15 PM80.6 °F30.2 °F16 %30.03 in10.0 miCalmClear
9:35 PM78.8 °F32.0 °F18 %30.03 in10.0 miCalmClear
9:55 PM78.8 °F32.0 °F18 %30.04 in10.0 miCalmClear
10:15 PM77.0 °F32.0 °F19 %30.04 in10.0 miCalmClear
10:35 PM73.4 °F35.6 °F25 %30.04 in10.0 miESE (120°)5.8 mphPartly Cloudy
10:55 PM73.4 °F33.8 °F23 %30.04 in10.0 miCalmPartly Cloudy
11:15 PM75.2 °F33.8 °F22 %30.04 in10.0 miEast (80°)3.5 mphScattered Clouds
11:35 PM75.2 °F32.0 °F21 %30.04 in10.0 miCalmMostly Cloudy
11:55 PM73.4 °F35.6 °F25 %30.04 in10.0 miEast (100°)3.5 mphScattered Clouds
Hourly data recorded from KPVF, located miles away from Placerville, California







STORIES FROM OUR PARTNERS